| time (UTC) | temp C | wind direction | speed KPH | gust KPH | rain 1hr cm | rain 24hr cm | rain mn cm | humidity % | barometer mb |
| 20260502163945 | 20 | 218 | 6.4 | 16.1 | 0.00 | 0.00 | 0.00 | 22 | 1017.5 |
| 20260502163452 | 19 | 166 | 6.4 | 16.1 | 0.00 | 0.00 | 0.00 | 22 | 1017.5 |
| 20260502162955 | 20 | 154 | 4.8 | 16.1 | 0.00 | 0.00 | 0.00 | 22 | 1017.5 |
| 20260502162450 | 19 | 227 | 4.8 | 16.1 | 0.00 | 0.00 | 0.00 | 24 | 1017.5 |
| 20260502161959 | 19 | 208 | 4.8 | 16.1 | 0.00 | 0.00 | 0.00 | 24 | 1017.5 |
| 20260502160838 | 18 | 195 | 4.8 | 16.1 | 0.00 | 0.00 | 0.00 | 25 | 1017.6 |
| 20260502160333 | 18 | 258 | 4.8 | 14.5 | 0.00 | 0.00 | 0.00 | 24 | 1017.7 |
| 20260502152312 | 17 | 262 | 3.2 | 14.5 | 0.00 | 0.00 | 0.00 | 32 | 1017.8 |
| 20260502151816 | 16 | 198 | 3.2 | 14.5 | 0.00 | 0.00 | 0.00 | 33 | 1017.9 |
| 20260502151301 | 16 | 277 | 1.6 | 9.7 | 0.00 | 0.00 | 0.00 | 36 | 1018.0 |
| 20260502150756 | 16 | 180 | 1.6 | 9.7 | 0.00 | 0.00 | 0.00 | 36 | 1017.9 |
| 20260502150239 | 16 | 257 | 1.6 | 9.7 | 0.00 | 0.00 | 0.00 | 36 | 1017.9 |
| 20260502130258 | 9 | 261 | 0.0 | 4.8 | 0.00 | 0.00 | 0.00 | 44 | 1018.3 |
| 20260502123748 | 8 | 268 | 0.0 | 3.2 | 0.00 | 0.00 | 0.00 | 49 | 1018.2 |
| 20260502123240 | 7 | 258 | 0.0 | 3.2 | 0.00 | 0.00 | 0.00 | 51 | 1018.2 |
| 20260502122731 | 7 | 187 | 0.0 | 3.2 | 0.00 | 0.00 | 0.00 | 53 | 1018.2 |
| 20260502122218 | 7 | 239 | 0.0 | 0.0 | 0.00 | 0.00 | 0.00 | 55 | 1018.2 |
| 20260502121708 | 7 | 253 | 0.0 | 0.0 | 0.00 | 0.00 | 0.00 | 59 | 1018.1 |
| 20260502121210 | 7 | 253 | 0.0 | 0.0 | 0.00 | 0.00 | 0.00 | 60 | 1018.2 |
| 20260502120702 | 7 | 253 | 0.0 | 0.0 | 0.00 | 0.00 | 0.00 | 59 | 1018.1 |
| 20260502120210 | 7 | 246 | 0.0 | 0.0 | 0.00 | 0.00 | 0.00 | 60 | 1018.1 |
| 20260502115655 | 7 | 246 | 0.0 | 0.0 | 0.00 | 0.00 | 0.00 | 59 | 1018.0 |
| 20260502115147 | 8 | 246 | 0.0 | 0.0 | 0.00 | 0.00 | 0.00 | 58 | 1018.1 |
| 20260502114630 | 8 | 246 | 0.0 | 0.0 | 0.00 | 0.00 | 0.00 | 56 | 1018.0 |
| 20260502114124 | 8 | 238 | 0.0 | 3.2 | 0.00 | 0.00 | 0.00 | 55 | 1018.1 |
| 20260502113605 | 8 | 237 | 0.0 | 1.6 | 0.00 | 0.00 | 0.00 | 54 | 1018.0 |
| 20260502113100 | 8 | 257 | 0.0 | 0.0 | 0.00 | 0.00 | 0.00 | 53 | 1018.1 |
| 20260502112556 | 8 | 264 | 0.0 | 0.0 | 0.00 | 0.00 | 0.00 | 52 | 1018.1 |
| 20260502112041 | 8 | 244 | 0.0 | 1.6 | 0.00 | 0.00 | 0.00 | 51 | 1018.2 |
| 20260502111544 | 8 | 246 | 0.0 | 3.2 | 0.00 | 0.00 | 0.00 | 50 | 1018.2 |
| 20260502111039 | 8 | 246 | 0.0 | 3.2 | 0.00 | 0.00 | 0.00 | 51 | 1018.1 |
| 20260502110520 | 8 | 249 | 0.0 | 1.6 | 0.00 | 0.00 | 0.00 | 50 | 1018.1 |
| 20260502110023 | 8 | 225 | 0.0 | 3.2 | 0.00 | 0.00 | 0.00 | 50 | 1018.1 |
| 20260502105506 | 8 | 280 | 0.0 | 1.6 | 0.00 | 0.00 | 0.00 | 50 | 1018.1 |
| 20260502105004 | 8 | 267 | 0.0 | 3.2 | 0.00 | 0.00 | 0.00 | 51 | 1018.0 |
| 20260502104501 | 8 | 268 | 0.0 | 1.6 | 0.00 | 0.00 | 0.00 | 51 | 1018.0 |
| 20260502103950 | 8 | 253 | 0.0 | 0.0 | 0.00 | 0.00 | 0.00 | 51 | 1018.0 |
| 20260502103446 | 8 | 223 | 0.0 | 4.8 | 0.00 | 0.00 | 0.00 | 51 | 1018.0 |
| 20260502102944 | 7 | 255 | 0.0 | 4.8 | 0.00 | 0.00 | 0.00 | 51 | 1018.0 |
| 20260502102426 | 7 | 239 | 1.6 | 4.8 | 0.00 | 0.00 | 0.00 | 52 | 1018.0 |
| 20260502101308 | 6 | 270 | 0.0 | 0.0 | 0.00 | 0.00 | 0.00 | 55 | 1017.9 |
| 20260502100802 | 6 | 272 | 0.0 | 0.0 | 0.00 | 0.00 | 0.00 | 55 | 1017.9 |
| 20260502091148 | 6 | 249 | 0.0 | 0.0 | 0.00 | 0.00 | 0.00 | 57 | 1017.7 |
| 20260502090644 | 6 | 238 | 0.0 | 0.0 | 0.00 | 0.00 | 0.00 | 57 | 1017.8 |
| 20260502090154 | 6 | 321 | 0.0 | 0.0 | 0.00 | 0.00 | 0.00 | 57 | 1017.8 |
| 20260502071345 | 8 | 272 | 0.0 | 0.0 | 0.00 | 0.00 | 0.00 | 47 | 1017.9 |
| 20260502070235 | 8 | 271 | 0.0 | 0.0 | 0.00 | 0.00 | 0.00 | 46 | 1017.8 |
| 20260502065103 | 8 | 271 | 0.0 | 0.0 | 0.00 | 0.00 | 0.00 | 46 | 1017.8 |
| 20260502064604 | 8 | 272 | 0.0 | 0.0 | 0.00 | 0.00 | 0.00 | 47 | 1017.7 |
| 20260502064055 | 8 | 272 | 0.0 | 0.0 | 0.00 | 0.00 | 0.00 | 47 | 1017.8 |
| 20260502063600 | 8 | 271 | 0.0 | 0.0 | 0.00 | 0.00 | 0.00 | 47 | 1017.8 |
| 20260502063043 | 8 | 271 | 0.0 | 0.0 | 0.00 | 0.00 | 0.00 | 48 | 1017.7 |
| 20260502062526 | 8 | 271 | 0.0 | 0.0 | 0.00 | 0.00 | 0.00 | 49 | 1017.7 |
| 20260502062026 | 8 | 271 | 0.0 | 0.0 | 0.00 | 0.00 | 0.00 | 49 | 1017.7 |
| 20260502061530 | 8 | 271 | 0.0 | 0.0 | 0.00 | 0.00 | 0.00 | 49 | 1017.6 |
| 20260502060406 | 8 | 271 | 0.0 | 0.0 | 0.00 | 0.00 | 0.00 | 49 | 1017.6 |
| 20260502055243 | 8 | 280 | 0.0 | 0.0 | 0.00 | 0.00 | 0.00 | 49 | 1017.5 |
| 20260502054057 | 8 | 280 | 0.0 | 0.0 | 0.00 | 0.00 | 0.00 | 49 | 1017.4 |
| 20260502053544 | 8 | 280 | 0.0 | 0.0 | 0.00 | 0.00 | 0.00 | 49 | 1017.5 |
| 20260502052423 | 8 | 281 | 0.0 | 0.0 | 0.00 | 0.00 | 0.00 | 47 | 1017.4 |
| 20260502051248 | 9 | 281 | 0.0 | 0.0 | 0.00 | 0.00 | 0.00 | 46 | 1017.4 |
| 20260502050730 | 9 | 281 | 0.0 | 0.0 | 0.00 | 0.00 | 0.00 | 46 | 1017.4 |
| 20260502050235 | 9 | 280 | 0.0 | 0.0 | 0.00 | 0.00 | 0.00 | 46 | 1017.4 |
| 20260502045733 | 10 | 281 | 0.0 | 0.0 | 0.00 | 0.00 | 0.00 | 46 | 1017.4 |
| 20260502045232 | 10 | 281 | 0.0 | 0.0 | 0.00 | 0.00 | 0.00 | 45 | 1017.4 |
| 20260502044735 | 10 | 281 | 0.0 | 0.0 | 0.00 | 0.00 | 0.00 | 44 | 1017.4 |
| 20260502044230 | 10 | 281 | 0.0 | 0.0 | 0.00 | 0.00 | 0.00 | 44 | 1017.5 |
| 20260502043713 | 10 | 281 | 0.0 | 0.0 | 0.00 | 0.00 | 0.00 | 44 | 1017.4 |
| 20260502043201 | 10 | 281 | 0.0 | 0.0 | 0.00 | 0.00 | 0.00 | 44 | 1017.4 |
| 20260502042706 | 10 | 281 | 0.0 | 0.0 | 0.00 | 0.00 | 0.00 | 43 | 1017.4 |
| 20260502042210 | 10 | 281 | 0.0 | 0.0 | 0.00 | 0.00 | 0.00 | 43 | 1017.3 |
| 20260502041717 | 10 | 281 | 0.0 | 0.0 | 0.00 | 0.00 | 0.00 | 42 | 1017.3 |
| 20260502041209 | 11 | 281 | 0.0 | 0.0 | 0.00 | 0.00 | 0.00 | 41 | 1017.3 |
| 20260502040652 | 11 | 281 | 0.0 | 0.0 | 0.00 | 0.00 | 0.00 | 40 | 1017.3 |
| 20260502040146 | 11 | 281 | 0.0 | 0.0 | 0.00 | 0.00 | 0.00 | 39 | 1017.3 |
| 20260502035647 | 12 | 281 | 0.0 | 0.0 | 0.00 | 0.00 | 0.00 | 38 | 1017.2 |
| 20260502035139 | 12 | 281 | 0.0 | 0.0 | 0.00 | 0.00 | 0.00 | 36 | 1017.1 |
| 20260502034646 | 12 | 281 | 0.0 | 0.0 | 0.00 | 0.00 | 0.00 | 36 | 1017.1 |
| 20260502034138 | 12 | 299 | 0.0 | 0.0 | 0.00 | 0.00 | 0.00 | 37 | 1017.0 |
| 20260502033638 | 12 | 299 | 0.0 | 0.0 | 0.00 | 0.00 | 0.00 | 36 | 1017.0 |
| 20260502032509 | 12 | 301 | 0.0 | 0.0 | 0.00 | 0.00 | 0.00 | 34 | 1016.7 |
| 20260502030741 | 13 | 301 | 0.0 | 0.0 | 0.00 | 0.00 | 0.00 | 30 | 1016.5 |
| 20260502030249 | 13 | 301 | 0.0 | 0.0 | 0.00 | 0.00 | 0.00 | 29 | 1016.4 |
| 20260502025752 | 13 | 301 | 0.0 | 0.0 | 0.00 | 0.00 | 0.00 | 28 | 1016.4 |
| 20260502025256 | 14 | 301 | 0.0 | 0.0 | 0.00 | 0.00 | 0.00 | 27 | 1016.3 |
| 20260502024737 | 14 | 301 | 0.0 | 0.0 | 0.00 | 0.00 | 0.00 | 26 | 1016.3 |
| 20260502023632 | 15 | 301 | 0.0 | 0.0 | 0.00 | 0.00 | 0.00 | 25 | 1016.2 |
| 20260502021915 | 15 | 284 | 0.0 | 0.0 | 0.00 | 0.00 | 0.00 | 25 | 1016.1 |
| 20260502020741 | 16 | 300 | 0.0 | 1.6 | 0.00 | 0.00 | 0.00 | 23 | 1015.9 |
| 20260502020225 | 16 | 316 | 0.0 | 4.8 | 0.00 | 0.00 | 0.00 | 23 | 1015.9 |
| 20260502015712 | 16 | 289 | 0.0 | 0.0 | 0.00 | 0.00 | 0.00 | 23 | 1015.8 |
| 20260502015157 | 16 | 311 | 0.0 | 9.7 | 0.00 | 0.00 | 0.00 | 22 | 1015.8 |
| 20260502014648 | 16 | 294 | 0.0 | 9.7 | 0.00 | 0.00 | 0.00 | 22 | 1015.8 |
| 20260502014141 | 16 | 328 | 0.0 | 9.7 | 0.00 | 0.00 | 0.00 | 23 | 1015.7 |
| 20260502013643 | 16 | 335 | 1.6 | 14.5 | 0.00 | 0.00 | 0.00 | 23 | 1015.8 |
| 20260502013140 | 16 | 298 | 1.6 | 14.5 | 0.00 | 0.00 | 0.00 | 23 | 1015.8 |
| 20260502012622 | 16 | 320 | 1.6 | 14.5 | 0.00 | 0.00 | 0.00 | 23 | 1015.7 |
| 20260502011437 | 17 | 312 | 0.0 | 11.3 | 0.00 | 0.00 | 0.00 | 24 | 1015.7 |
| 20260502010927 | 17 | 318 | 1.6 | 9.7 | 0.00 | 0.00 | 0.00 | 24 | 1015.7 |
| 20260502010411 | 17 | 268 | 1.6 | 9.7 | 0.00 | 0.00 | 0.00 | 25 | 1015.8 |
| 20260502005920 | 17 | 270 | 1.6 | 12.9 | 0.00 | 0.00 | 0.00 | 26 | 1015.8 |
| 20260502005422 | 17 | 306 | 0.0 | 12.9 | 0.00 | 0.00 | 0.00 | 26 | 1015.8 |
| 20260502004925 | 17 | 324 | 1.6 | 12.9 | 0.00 | 0.00 | 0.00 | 25 | 1015.8 |
| 20260502004407 | 17 | 306 | 1.6 | 12.9 | 0.00 | 0.00 | 0.00 | 25 | 1015.7 |
| 20260502003851 | 17 | 320 | 1.6 | 11.3 | 0.00 | 0.00 | 0.00 | 25 | 1015.7 |
| 20260502003332 | 17 | 329 | 1.6 | 11.3 | 0.00 | 0.00 | 0.00 | 25 | 1015.7 |
| 20260502002215 | 17 | 324 | 1.6 | 11.3 | 0.00 | 0.00 | 0.00 | 26 | 1015.8 |
| 20260502001714 | 18 | 310 | 3.2 | 12.9 | 0.00 | 0.00 | 0.00 | 26 | 1015.8 |
| 20260502001215 | 18 | 335 | 3.2 | 12.9 | 0.00 | 0.00 | 0.00 | 25 | 1015.9 |
| 20260502000718 | 18 | 341 | 3.2 | 16.1 | 0.00 | 0.00 | 0.00 | 26 | 1015.8 |
| 20260502000218 | 18 | 323 | 6.4 | 16.1 | 0.00 | 0.00 | 0.00 | 25 | 1015.9 |
| 20260501235659 | 18 | 0 | 3.2 | 17.7 | 0.00 | 0.00 | 0.00 | 25 | 1015.9 |
| 20260501235143 | 18 | 327 | 1.6 | 17.7 | 0.00 | 0.00 | 0.00 | 26 | 1015.8 |
| 20260501234635 | 18 | 327 | 1.6 | 17.7 | 0.00 | 0.00 | 0.00 | 24 | 1015.8 |
| 20260501234119 | 18 | 296 | 1.6 | 17.7 | 0.00 | 0.00 | 0.00 | 24 | 1015.9 |
| 20260501233621 | 18 | 277 | 1.6 | 12.9 | 0.00 | 0.00 | 0.00 | 25 | 1015.8 |
| 20260501233113 | 19 | 258 | 1.6 | 12.9 | 0.00 | 0.00 | 0.00 | 24 | 1015.9 |
| 20260501232557 | 18 | 292 | 3.2 | 12.9 | 0.00 | 0.00 | 0.00 | 25 | 1015.9 |
| 20260501232058 | 18 | 317 | 3.2 | 14.5 | 0.00 | 0.00 | 0.00 | 24 | 1015.9 |
| 20260501231542 | 19 | 282 | 3.2 | 14.5 | 0.00 | 0.00 | 0.00 | 23 | 1015.9 |
| 20260501231028 | 18 | 329 | 3.2 | 14.5 | 0.00 | 0.00 | 0.00 | 24 | 1015.9 |
| 20260501230532 | 19 | 324 | 3.2 | 14.5 | 0.00 | 0.00 | 0.00 | 23 | 1015.9 |
| 20260501230035 | 18 | 313 | 3.2 | 14.5 | 0.00 | 0.00 | 0.00 | 24 | 1015.9 |
| 20260501225521 | 18 | 264 | 3.2 | 19.3 | 0.00 | 0.00 | 0.00 | 24 | 1016.1 |
| 20260501225024 | 18 | 346 | 1.6 | 19.3 | 0.00 | 0.00 | 0.00 | 24 | 1016.1 |
| 20260501223858 | 18 | 303 | 4.8 | 19.3 | 0.00 | 0.00 | 0.00 | 25 | 1016.2 |
| 20260501223359 | 18 | 339 | 3.2 | 17.7 | 0.00 | 0.00 | 0.00 | 24 | 1016.3 |
| 20260501222859 | 18 | 337 | 4.8 | 17.7 | 0.00 | 0.00 | 0.00 | 25 | 1016.3 |
| 20260501222341 | 18 | 335 | 3.2 | 16.1 | 0.00 | 0.00 | 0.00 | 26 | 1016.4 |
| 20260501221846 | 18 | 287 | 3.2 | 16.1 | 0.00 | 0.00 | 0.00 | 25 | 1016.3 |
| 20260501221336 | 18 | 281 | 4.8 | 17.7 | 0.00 | 0.00 | 0.00 | 24 | 1016.4 |
| 20260501220842 | 18 | 310 | 4.8 | 17.7 | 0.00 | 0.00 | 0.00 | 24 | 1016.5 |
| 20260501220329 | 18 | 318 | 6.4 | 17.7 | 0.00 | 0.00 | 0.00 | 26 | 1016.5 |
| 20260501215146 | 18 | 314 | 3.2 | 16.1 | 0.00 | 0.00 | 0.00 | 25 | 1016.6 |
| 20260501214630 | 18 | 344 | 3.2 | 16.1 | 0.00 | 0.00 | 0.00 | 25 | 1016.6 |
| 20260501214121 | 18 | 328 | 6.4 | 22.5 | 0.00 | 0.00 | 0.00 | 24 | 1016.8 |
| 20260501213023 | 18 | 327 | 3.2 | 22.5 | 0.00 | 0.00 | 0.00 | 24 | 1016.9 |
| 20260501211836 | 18 | 336 | 4.8 | 19.3 | 0.00 | 0.00 | 0.00 | 24 | 1016.9 |
| 20260501211334 | 18 | 310 | 4.8 | 16.1 | 0.00 | 0.00 | 0.00 | 24 | 1016.9 |
| 20260501210815 | 18 | 339 | 1.6 | 16.1 | 0.00 | 0.00 | 0.00 | 24 | 1017.0 |
| 20260501210311 | 18 | 317 | 1.6 | 17.7 | 0.00 | 0.00 | 0.00 | 24 | 1017.0 |
| 20260501205820 | 18 | 297 | 3.2 | 17.7 | 0.00 | 0.00 | 0.00 | 25 | 1017.0 |
| 20260501204649 | 17 | 320 | 4.8 | 17.7 | 0.00 | 0.00 | 0.00 | 26 | 1017.2 |
| 20260501204134 | 17 | 345 | 6.4 | 14.5 | 0.00 | 0.00 | 0.00 | 26 | 1017.2 |
| 20260501203628 | 17 | 327 | 6.4 | 16.1 | 0.00 | 0.00 | 0.00 | 27 | 1017.1 |
| 20260501203138 | 17 | 342 | 4.8 | 16.1 | 0.00 | 0.00 | 0.00 | 26 | 1017.1 |
| 20260501202626 | 17 | 7 | 3.2 | 20.9 | 0.00 | 0.00 | 0.00 | 25 | 1017.2 |
| 20260501202124 | 17 | 330 | 3.2 | 20.9 | 0.00 | 0.00 | 0.00 | 26 | 1017.0 |
| 20260501200954 | 17 | 273 | 3.2 | 14.5 | 0.00 | 0.00 | 0.00 | 26 | 1017.1 |
| 20260501200501 | 18 | 344 | 3.2 | 12.9 | 0.00 | 0.00 | 0.00 | 24 | 1017.1 |
| 20260501200008 | 18 | 315 | 3.2 | 12.9 | 0.00 | 0.00 | 0.00 | 25 | 1017.2 |
| 20260501195502 | 17 | 304 | 3.2 | 19.3 | 0.00 | 0.00 | 0.00 | 25 | 1017.4 |
| 20260501194341 | 17 | 255 | 8.0 | 19.3 | 0.00 | 0.00 | 0.00 | 26 | 1017.5 |
| 20260501193835 | 17 | 303 | 6.4 | 17.7 | 0.00 | 0.00 | 0.00 | 26 | 1017.4 |
| 20260501193325 | 17 | 293 | 3.2 | 12.9 | 0.00 | 0.00 | 0.00 | 28 | 1017.4 |
| 20260501192822 | 18 | 342 | 3.2 | 12.9 | 0.00 | 0.00 | 0.00 | 25 | 1017.5 |
| 20260501192317 | 17 | 311 | 1.6 | 11.3 | 0.00 | 0.00 | 0.00 | 25 | 1017.6 |
| 20260501191818 | 17 | 275 | 1.6 | 11.3 | 0.00 | 0.00 | 0.00 | 28 | 1017.6 |
| 20260501191326 | 17 | 341 | 3.2 | 11.3 | 0.00 | 0.00 | 0.00 | 25 | 1017.8 |
| 20260501190811 | 17 | 341 | 3.2 | 17.7 | 0.00 | 0.00 | 0.00 | 27 | 1017.8 |
| 20260501190310 | 17 | 345 | 3.2 | 17.7 | 0.00 | 0.00 | 0.00 | 27 | 1017.9 |
| 20260501185816 | 17 | 320 | 3.2 | 19.3 | 0.00 | 0.00 | 0.00 | 27 | 1018.0 |
| 20260501184700 | 17 | 295 | 3.2 | 19.3 | 0.00 | 0.00 | 0.00 | 25 | 1018.0 |
| 20260501184151 | 17 | 268 | 3.2 | 19.3 | 0.00 | 0.00 | 0.00 | 24 | 1018.1 |
| 20260501183022 | 16 | 339 | 3.2 | 12.9 | 0.00 | 0.00 | 0.00 | 26 | 1018.3 |
| 20260501181236 | 16 | 327 | 3.2 | 14.5 | 0.00 | 0.00 | 0.00 | 27 | 1018.4 |
| 20260501180726 | 16 | 352 | 1.6 | 14.5 | 0.00 | 0.00 | 0.00 | 26 | 1018.4 |
| 20260501180229 | 16 | 307 | 0.0 | 9.7 | 0.00 | 0.00 | 0.00 | 26 | 1018.4 |
| 20260501175735 | 16 | 222 | 3.2 | 9.7 | 0.00 | 0.00 | 0.00 | 26 | 1018.4 |
| 20260501175225 | 16 | 9 | 3.2 | 14.5 | 0.00 | 0.00 | 0.00 | 26 | 1018.6 |
| 20260501174711 | 16 | 315 | 3.2 | 14.5 | 0.00 | 0.00 | 0.00 | 26 | 1018.5 |
| 20260501173534 | 16 | 325 | 3.2 | 14.5 | 0.00 | 0.00 | 0.00 | 26 | 1018.6 |
| 20260501173017 | 16 | 269 | 3.2 | 16.1 | 0.00 | 0.00 | 0.00 | 26 | 1018.6 |
| 20260501172500 | 16 | 341 | 4.8 | 16.1 | 0.00 | 0.00 | 0.00 | 27 | 1018.7 |
| 20260501171946 | 16 | 332 | 6.4 | 16.1 | 0.00 | 0.00 | 0.00 | 30 | 1018.6 |